Regional Weather Roundup
Issued by NWS

Home | Current Version | Previous Version | Text Only | Print | Product List | Glossary Off
Versions: 1 2 3 4 5 6 7 8 9 10 11 12 13 14 15 16 17 18 19 20 21 22 23 24 25 26 27 28 29 30 31 32 33 34 35 36 37 38 39 40 41 42 43 44 45 46 47 48 49 50

000
ASUS43 KDTX 012101
RWRMI
MICHIGAN HOURLY REGIONAL WEATHER ROUNDUP
NATIONAL WEATHER SERVICE DETROIT/PONTIAC MI
500 PM EDT FRI AUG 01 2014

NOTE: "FAIR" INDICATES FEW OR NO CLOUDS BELOW 12,000 FEET WITH NO
SIGNIFICANT WEATHER AND/OR OBSTRUCTION TO VISIBILITY.

MIZ047>049-052>055-059>063-066>070-074>076-081>083-012200-
SOUTHEAST LOWER MICHIGAN

CITY           SKY/WX    TMP DP  RH WIND       PRES   REMARKS
ADRIAN         TSTM      73  63  70 S18       30.09F
ALMA           PTSUNNY   78  61  55 W9        30.07F
ANN ARBOR      PTSUNNY   80  60  50 SW6       30.07F
BAD AXE        MOSUNNY   78  60  53 CALM      30.08R
CARO           MOSUNNY   82  61  48 W5        30.07S
DETROIT CITY   PTSUNNY   82  63  52 SE8       30.07F
DETROIT        PTSUNNY   79  60  52 S10       30.08F
FLINT          PTSUNNY   79  60  52 SW7       30.07S
GROSSE ILE     PTSUNNY   75  66  73 CALM      30.07F
HILLSDALE      PTSUNNY   78  60  54 W3        30.10F
HOWELL         MOSUNNY   78  55  44 W5        30.08F

CITY           SKY/WX    TMP DP  RH WIND       PRES   REMARKS
LAMBERTVILLE   PTSUNNY   81  55  41 N6        30.08F
LANSING        PTSUNNY   73  60  63 S12       30.07F
LAPEER         FAIR      76  62  63 MISG      30.07F
MASON          PTSUNNY   77  62  60 NW3       30.08F
MT. CLEMENS    TSTM      71  60  68 E3        30.07R
PONTIAC        PTSUNNY   82  55  39 VRB3      30.06F
PORT HOPE        N/A     71  64  78 E6        30.07S
TRI CITIES     MOSUNNY   82  59  45 S6        30.07S
TROY           PTSUNNY   82  57  43 SW8       30.08F
SAGINAW HB     MOSUNNY   82  55  39 W5        30.06S
$$
MIZ043>046-050>051-056>058-064>065-071>073-077>080-012200-
SOUTHWEST LOWER MICHIGAN

CITY           SKY/WX    TMP DP  RH WIND       PRES   REMARKS
BATTLE CREEK   PTSUNNY   75  60  59 W9        30.09S
BENTON HARBOR  PTSUNNY   77  58  51 W8        30.08F
BIG RAPIDS     PTSUNNY   69  61  74 SW5       30.08S
COLDWATER      LGT RAIN  74  63  69 SW6       30.10S
FREMONT        FAIR      80  55  42 W8        30.07S
HOLLAND        MOSUNNY   82  61  48 SW8       30.09S
GRAND RAPIDS   MOSUNNY   85  58  39 SW12      30.07S
IONIA          FAIR      79  60  51 N9        30.06S
KALAMAZOO      PTSUNNY   74  63  68 W6        30.09F
LUDINGTON      SUNNY     74  60  61 W8        30.07S
MARSHALL       CLOUDY    78  59  52 SW8       30.08F
MOUNT PLEASANT CLOUDY    78  60  53 W3        30.06F
MUSKEGON       SUNNY     78  58  49 S8        30.08S
SOUTH HAVEN    PTSUNNY   78  61  55 SW6       30.08F
$$
MIZ016>042-012200-
NORTHERN LOWER MICHIGAN

CITY           SKY/WX    TMP DP  RH WIND       PRES   REMARKS
ALPENA         MOSUNNY   77  57  50 E8        30.07S
BEAVER ISLAND  SUNNY     77  56  48 NW3       30.07S
BELLAIRE       MOSUNNY   80  48  32 E3        30.04F
CADILLAC       PTSUNNY   75  57  54 W3        30.08R
CHARLEVOIX     SUNNY     74  55  50 N8        30.10S
GAYLORD        MOSUNNY   76  49  38 CALM      30.08S
GRAYLING       MOSUNNY   79  49  33 NW7       30.08S
HARBOR SPRINGS PTSUNNY   73  59  61 SW5       30.07S
HOUGHTON LAKE  MOSUNNY   79  53  40 VRB5      30.08S
MANISTEE       SUNNY     75  61  60 W7        30.07R
OSCODA         SUNNY     74  57  55 E8        30.07S
PELLSTON       MOSUNNY   79  48  33 W7        30.07S
ROGERS CITY    SUNNY     69  57  64 NE6       30.09S
TRAVERSE CITY  MOSUNNY   79  52  38 NE9       30.03F
$$
MIZ007>008-015-012200-
EASTERN UPPER MICHIGAN

CITY           SKY/WX    TMP DP  RH WIND       PRES   REMARKS
KINROSS        SUNNY     73  55  53 N8        30.08R
NEWBERRY       MOSUNNY   73  53  49 N6        30.07S
S. S. MARIE    SUNNY     74  50  42 NW7       30.07S
MUNISING         N/A     64  56  75 NE14      30.09R
$$
MIZ004>006-011>014-085-012200-
CENTRAL UPPER MICHIGAN

CITY           SKY/WX    TMP DP  RH WIND       PRES   REMARKS
MANISTIQUE     MOSUNNY   73  52  48 S5        30.06S
ESCANABA       SUNNY     73  54  49 SE9       30.05S
MENOMINEE      MOSUNNY   77  61  57 SE7       30.03S
SAWYER-GWINN   SUNNY     70  54  56 NE12      30.09S
$$
MIZ001>003-009>011-084-012200-
WESTERN UPPER MICHIGAN

CITY           SKY/WX    TMP DP  RH WIND       PRES   REMARKS
IRON MOUNTAIN  MOSUNNY   79  48  33 VRB5      30.05S
HOUGHTON       SUNNY     67  52  58 E10       30.09S
COPPER HARBOR    N/A     70  52  52 SE5       30.08S
IRONWOOD       PTSUNNY   73  52  46 N5        30.06
$$

ABBREVIATIONS USED IN REMARKS
   TC - TEMPERATURE IN CELSIUS
  WCI - WIND CHILL INDEX
   HX - HEAT INDEX
  VSB - VISIBILITY



USA.gov is the U.S. government's official web portal to all federal, state and local government web resources and services.